Miscellaneous Local Product
Issued by NWS Hastings, NE

Home | Current Version | Previous Version | Graphics & Text | Print | Product List | Glossary On
Versions: 1 2 3 4 5 6 7 8 9 10 11 12 13 14 15 16 17 18 19 20 21 22 23 24 25 26 27 28 29 30 31 32 33 34 35 36 37 38 39 40 41 42 43 44 45 46 47 48 49 50
140
AXUS43 KGID 212302
MISGRI

GID CWA HOURLY WEATHER ROUNDUP
NATIONAL WEATHER SERVICE HASTINGS NE
600 PM CDT FRI APR 21 2017

NOTE: "FAIR" INDICATES FEW OR NO CLOUDS BELOW 12,000 FEET WITH NO
SIGNIFICANT WEATHER AND/OR OBSTRUCTIONS TO VISIBILITY.

...SOUTH CENTRAL NEBRASKA...

CITY           SKY/WX    TMP DP  RH WIND       PRES   REMARKS
GRAND ISLAND   MOSUNNY   57  34  41 E17       30.14R
HASTINGS       CLOUDY    56  33  42 E20       30.13R
KEARNEY        CLOUDY    57  30  35 E17G24    30.13R
ORD            CLOUDY    56  34  43 NE12      30.15R
YORK           CLOUDY    54  37  54 NE17G24   30.14R
AURORA         CLOUDY    56  36  46 E18       30.13R
LEXINGTON      CLOUDY    56  34  44 E13       30.13R
HOLDREGE       CLOUDY    55  30  38 E13G20    30.12R
HEBRON         CLOUDY    55  36  49 NE17      30.12R

...NEBRASKA PANHANDLE...

CITY           SKY/WX    TMP DP  RH WIND       PRES   REMARKS
CHADRON        CLOUDY    56  37  49 SE9       30.13R
ALLIANCE       CLOUDY    50  36  58 S8        30.14R
SCOTTSBLUFF    CLOUDY    49  39  68 S10       30.15R
SIDNEY         CLOUDY    43  40  89 SE10      30.16R

...WESTERN AND NORTH CENTRAL NEBRASKA...

CITY           SKY/WX    TMP DP  RH WIND       PRES   REMARKS
VALENTINE      CLOUDY    59  28  30 E13       30.17R
AINSWORTH      CLOUDY    54  38  54 SE14      30.18R
ONEILL         CLOUDY    55  35  47 E9        30.19R
BROKEN BOW     CLOUDY    56  34  43 E12       30.14R
IMPERIAL       CLOUDY    50  38  63 E7        30.14R
NORTH PLATTE   CLOUDY    55  36  48 E12       30.14R
MCCOOK         CLOUDY    53  37  54 E6        30.13R

...EASTERN NEBRASKA...

CITY           SKY/WX    TMP DP  RH WIND       PRES   REMARKS
NORFOLK        CLOUDY    55  36  48 NE15      30.14S
SO SIOUX CITY  CLOUDY    58  38  47 NE10      30.16R
TEKAMAH        CLOUDY    56  40  55 NE16      30.15R
COLUMBUS       CLOUDY    55  39  54 NE16      30.16R
ALBION         CLOUDY    56  37  48 NE12G17   30.16R
OMAHA EPPLEY   CLOUDY    57  37  47 N17G24    30.13R
OFFUTT AFB     CLOUDY    57  36  45 NE13      30.11R
MILLARD        CLOUDY    58  39  48 NE9       30.13R
LINCOLN        CLOUDY    56  36  47 NE14      30.13R
NEBRASKA CITY  CLOUDY    55  30  38 NE10      30.11R
BEATRICE       CLOUDY    54  40  59 NE7       30.10S
FALLS CITY     CLOUDY    54  38  54 NE8       30.07R

...NORTHERN KANSAS...

CITY           SKY/WX    TMP DP  RH WIND       PRES   REMARKS
GOODLAND       CLOUDY    45  41  86 NE8       30.12S
HILL CITY      LGT RAIN  49  43  80 NE7       30.12R
NORTON         CLOUDY    54  36  50 NE9       30.10R
PHILLIPSBURG   CLOUDY    55  37  50 E12       30.10R
SMITH CENTER   CLOUDY    54  36  50 NE13G20   30.11R
HAYS           LGT RAIN  49  42  77 N18       30.08R
RUSSELL        RAIN      48  41  76 NE13      30.06R
CONCORDIA      LGT RAIN  48  42  80 NE8       30.09R
SALINA         LGT RAIN  51  44  77 N14       30.05S
TOPEKA         CLOUDY    54  41  61 NE9       30.03R



USA.gov is the U.S. government's official web portal to all federal, state and local government web resources and services.